Terug naar catalogus

QIANFAN-222

ActiefCommunicatiePO
NORAD 69851·PAYLOAD·🇨🇳 China

Gelanceerd Jul 5, 2026 vanaf Wenchang Space Launch Site

Loading…

Volgende Passages (komende 24 uur)

TLE

VersSource: Space-Track

Epoch: Sep 14, 2026, 12:26 UTC

1 69851U 26155D   26257.51852153  .00000015  00000-0  34735-5 0  9993
2 69851  89.0083  54.3503 0034851  26.4771 333.8155 13.57781050  9900

Volg QIANFAN-222 in realtime met AllMySat

Download on the App Store